Overview Statistics Trail Chart Weather Telemetry Raw packets
 

This is the latest recevied weather packets stored in our database for station/object IZ5ILU-16. If no packets are shown the sender has not sent any weather packets the latest 10 day(s).

<< 7 8 9 10 11 12 13 >>
Time Temp. Humidity Pressure Rain* Wind** Luminosity Snow
1788541301 31.11° C 45% 1017.9 hPa 0 mm - - -
1788540701 31.67° C 43% 1018 hPa 0 mm - - -
1788540101 32.22° C 40% 1018.1 hPa 0 mm - - -
1788539501 32.78° C 37% 1018.1 hPa 0 mm - - -
1788538901 32.78° C 38% 1018.1 hPa 0 mm - - -
1788538301 32.78° C 38% 1018.1 hPa 0 mm - - -
1788537701 33.33° C 34% 1018.2 hPa 0 mm - - -
1788537101 32.78° C 35% 1018.2 hPa 0 mm - - -
1788536501 33.33° C 35% 1018.3 hPa 0 mm - - -
1788535901 33.33° C 35% 1018.3 hPa 0 mm - - -
1788535301 33.33° C 36% 1018.2 hPa 0 mm - - -
1788534701 33.33° C 34% 1018.3 hPa 0 mm - - -
1788534101 33.33° C 34% 1018.3 hPa 0 mm - - -
1788533501 32.78° C 36% 1018.3 hPa 0 mm - - -
1788532901 33.33° C 38% 1018.3 hPa 0 mm - - -
1788532301 32.78° C 38% 1018.3 hPa 0 mm - - -
1788531701 33.33° C 42% 1018.3 hPa 0 mm - - -
1788531101 32.78° C 42% 1018.4 hPa 0 mm - - -
1788530501 32.78° C 43% 1018.4 hPa 0 mm - - -
1788529901 32.22° C 45% 1018.5 hPa 0 mm - - -
1788529301 32.22° C 43% 1018.5 hPa 0 mm - - -
1788528701 31.67° C 42% 1018.6 hPa 0 mm - - -
1788528101 31.11° C 45% 1018.6 hPa 0 mm - - -
1788527501 30.56° C 48% 1018.6 hPa 0 mm - - -
1788526901 30.56° C 48% 1018.7 hPa 0 mm - - -

* Rain latest hour (hover to see other rain measurements)
** Current wind speed in m/s (hover to see current wind gust speed)